TimeCST,TemperatureF,Dew PointF,Humidity,Sea Level PressureIn,VisibilityMPH,Wind Direction,Wind SpeedMPH,Gust SpeedMPH,PrecipitationIn,Events,Conditions,WindDirDegrees,DateUTC
12:01 AM,1.4,-4.0,78,29.73,10.0,West,10.4,-,N/A,,Clear,280,2014-02-14 06:01:00
12:21 AM,-0.4,-4.0,85,29.74,10.0,West,11.5,-,N/A,,Clear,270,2014-02-14 06:21:00
12:41 AM,-0.4,-5.8,78,29.74,10.0,West,10.4,-,N/A,,Clear,280,2014-02-14 06:41:00
1:01 AM,-0.4,-4.0,85,29.74,10.0,West,10.4,-,N/A,,Clear,270,2014-02-14 07:01:00
1:21 AM,-0.4,-4.0,85,29.74,10.0,West,10.4,-,N/A,,Clear,270,2014-02-14 07:21:00
1:41 AM,-0.4,-5.8,78,29.74,10.0,West,8.1,-,N/A,,Clear,280,2014-02-14 07:41:00
2:01 AM,-0.4,-5.8,78,29.74,10.0,WNW,8.1,-,N/A,,Clear,290,2014-02-14 08:01:00
2:21 AM,-0.4,-5.8,78,29.75,10.0,WNW,5.8,-,N/A,,Clear,300,2014-02-14 08:21:00
2:41 AM,-0.4,-4.0,85,29.74,10.0,NW,6.9,-,N/A,,Clear,320,2014-02-14 08:41:00
3:00 AM,-0.4,-4.0,85,29.74,10.0,NW,5.8,-,N/A,,Clear,310,2014-02-14 09:00:00
3:21 AM,-0.4,-4.0,85,29.73,10.0,NW,5.8,-,N/A,,Clear,320,2014-02-14 09:21:00
3:41 AM,-0.4,-5.8,78,29.75,10.0,WNW,5.8,-,N/A,,Clear,290,2014-02-14 09:41:00
4:00 AM,-0.4,-5.8,78,29.75,10.0,WNW,6.9,-,N/A,,Clear,300,2014-02-14 10:00:00
4:21 AM,-2.2,-5.8,85,29.76,10.0,WNW,6.9,-,N/A,,Clear,300,2014-02-14 10:21:00
4:41 AM,-0.4,-5.8,78,29.78,10.0,WNW,10.4,-,N/A,,Scattered Clouds,290,2014-02-14 10:41:00
5:01 AM,-0.4,-5.8,78,29.80,10.0,WNW,10.4,-,N/A,,Scattered Clouds,290,2014-02-14 11:01:00
5:21 AM,-0.4,-4.0,85,29.81,10.0,WNW,10.4,-,N/A,,Mostly Cloudy,290,2014-02-14 11:21:00
5:41 AM,-0.4,-5.8,78,29.82,10.0,WNW,8.1,-,N/A,,Mostly Cloudy,300,2014-02-14 11:41:00
6:01 AM,-0.4,-5.8,78,29.82,10.0,WNW,9.2,-,N/A,,Scattered Clouds,290,2014-02-14 12:01:00
6:21 AM,-0.4,-5.8,78,29.83,5.0,WNW,8.1,-,N/A,Snow,Light Snow,300,2014-02-14 12:21:00
6:40 AM,-2.2,-5.8,85,29.84,10.0,NW,8.1,-,N/A,,Clear,310,2014-02-14 12:40:00
7:01 AM,-2.2,-5.8,85,29.85,10.0,WNW,8.1,-,N/A,,Clear,290,2014-02-14 13:01:00
7:21 AM,-2.2,-5.8,85,29.86,10.0,WNW,8.1,-,N/A,,Clear,300,2014-02-14 13:21:00
7:40 AM,-2.2,-5.8,85,29.87,10.0,WNW,8.1,-,N/A,,Clear,290,2014-02-14 13:40:00
8:01 AM,-0.4,-5.8,78,29.88,10.0,WNW,6.9,-,N/A,,Clear,300,2014-02-14 14:01:00
8:21 AM,-0.4,-5.8,78,29.89,10.0,WNW,10.4,-,N/A,,Clear,300,2014-02-14 14:21:00
8:41 AM,1.4,-4.0,78,29.90,10.0,NW,6.9,-,N/A,,Clear,310,2014-02-14 14:41:00
9:01 AM,1.4,-2.2,85,29.90,10.0,NW,10.4,-,N/A,,Clear,310,2014-02-14 15:01:00
9:21 AM,3.2,-2.2,78,29.91,10.0,NW,10.4,-,N/A,,Clear,310,2014-02-14 15:21:00
9:41 AM,5.0,-2.2,72,29.91,10.0,NW,10.4,-,N/A,,Clear,320,2014-02-14 15:41:00
10:00 AM,5.0,-2.2,72,29.92,10.0,NW,10.4,-,N/A,,Clear,320,2014-02-14 16:00:00
10:21 AM,6.8,-0.4,72,29.93,10.0,NNW,10.4,-,N/A,,Clear,330,2014-02-14 16:21:00
10:40 AM,6.8,-0.4,72,29.93,10.0,NW,11.5,-,N/A,,Clear,310,2014-02-14 16:40:00
11:01 AM,8.6,-0.4,67,29.94,10.0,NNW,9.2,-,N/A,,Clear,340,2014-02-14 17:01:00
11:21 AM,8.6,-0.4,67,29.94,10.0,NW,9.2,-,N/A,,Clear,310,2014-02-14 17:21:00
11:41 AM,8.6,-0.4,67,29.94,10.0,NW,12.7,-,N/A,,Clear,310,2014-02-14 17:41:00
12:01 PM,10.4,-0.4,62,29.94,10.0,WNW,10.4,-,N/A,,Clear,290,2014-02-14 18:01:00
12:21 PM,10.4,1.4,67,29.93,10.0,WNW,9.2,-,N/A,,Clear,300,2014-02-14 18:21:00
12:41 PM,10.4,1.4,67,29.93,10.0,WNW,8.1,-,N/A,,Clear,300,2014-02-14 18:41:00
1:00 PM,10.4,1.4,67,29.93,10.0,WNW,12.7,-,N/A,,Clear,290,2014-02-14 19:00:00
1:21 PM,10.4,1.4,67,29.94,10.0,WNW,9.2,-,N/A,,Clear,290,2014-02-14 19:21:00
1:41 PM,12.2,1.4,62,29.94,10.0,WNW,10.4,-,N/A,,Clear,290,2014-02-14 19:41:00
2:01 PM,12.2,1.4,62,29.95,10.0,West,13.8,-,N/A,,Clear,280,2014-02-14 20:01:00
2:21 PM,12.2,1.4,62,29.95,10.0,West,9.2,-,N/A,,Clear,280,2014-02-14 20:21:00
2:40 PM,12.2,1.4,62,29.96,10.0,West,12.7,-,N/A,,Clear,270,2014-02-14 20:40:00
3:01 PM,12.2,1.4,62,29.96,10.0,West,13.8,-,N/A,,Clear,280,2014-02-14 21:01:00
3:21 PM,10.4,1.4,67,29.97,10.0,WNW,13.8,19.6,N/A,,Clear,290,2014-02-14 21:21:00
3:41 PM,10.4,1.4,67,29.97,10.0,West,13.8,-,N/A,,Clear,280,2014-02-14 21:41:00
4:01 PM,10.4,1.4,67,29.97,10.0,West,15.0,-,N/A,,Clear,280,2014-02-14 22:01:00
4:21 PM,10.4,1.4,67,29.98,10.0,WNW,11.5,16.1,N/A,,Clear,290,2014-02-14 22:21:00
4:41 PM,10.4,1.4,67,29.98,10.0,WNW,10.4,16.1,N/A,,Clear,290,2014-02-14 22:41:00
5:01 PM,8.6,1.4,73,29.99,10.0,West,10.4,-,N/A,,Clear,280,2014-02-14 23:01:00
5:21 PM,8.6,-0.4,67,30.01,10.0,West,12.7,-,N/A,,Clear,280,2014-02-14 23:21:00
5:41 PM,6.8,-0.4,72,30.00,10.0,West,9.2,-,N/A,,Clear,280,2014-02-14 23:41:00
6:01 PM,6.8,-0.4,72,30.00,10.0,West,5.8,-,N/A,,Clear,270,2014-02-15 00:01:00
6:21 PM,5.0,-0.4,78,30.00,10.0,West,6.9,-,N/A,,Clear,260,2014-02-15 00:21:00
6:41 PM,5.0,-0.4,78,30.01,10.0,West,6.9,-,N/A,,Clear,270,2014-02-15 00:41:00
7:01 PM,6.8,-0.4,72,30.00,10.0,West,6.9,-,N/A,,Clear,270,2014-02-15 01:01:00
7:21 PM,3.2,-2.2,78,29.99,10.0,West,4.6,-,N/A,,Clear,260,2014-02-15 01:21:00
7:41 PM,5.0,-0.4,78,29.99,10.0,West,4.6,-,N/A,,Clear,260,2014-02-15 01:41:00
8:01 PM,3.2,-2.2,78,30.01,10.0,West,4.6,-,N/A,,Clear,270,2014-02-15 02:01:00
8:20 PM,3.2,-0.4,85,30.02,10.0,West,4.6,-,N/A,,Clear,260,2014-02-15 02:20:00
8:41 PM,3.2,-0.4,85,30.01,10.0,WSW,5.8,-,N/A,,Clear,250,2014-02-15 02:41:00
9:01 PM,1.4,-2.2,85,30.02,10.0,West,6.9,-,N/A,,Clear,260,2014-02-15 03:01:00
9:20 PM,3.2,-0.4,85,30.02,10.0,West,9.2,-,N/A,,Clear,270,2014-02-15 03:20:00
9:41 PM,1.4,-2.2,85,30.02,10.0,West,8.1,-,N/A,,Clear,270,2014-02-15 03:41:00
10:01 PM,-0.4,-2.2,92,30.03,10.0,West,6.9,-,N/A,,Clear,270,2014-02-15 04:01:00
10:20 PM,-0.4,-2.2,92,30.04,10.0,West,8.1,-,N/A,,Clear,270,2014-02-15 04:20:00
10:41 PM,1.4,-2.2,85,30.04,10.0,West,4.6,-,N/A,,Clear,260,2014-02-15 04:41:00
11:01 PM,1.4,-2.2,85,30.02,10.0,SW,3.5,-,N/A,,Clear,230,2014-02-15 05:01:00
11:20 PM,-0.4,-4.0,85,30.02,10.0,WSW,3.5,-,N/A,,Clear,240,2014-02-15 05:20:00
11:41 PM,-0.4,-4.0,85,30.02,10.0,SW,3.5,-,N/A,,Clear,230,2014-02-15 05:41:00